Location: Delia
(51.6321°N, 112.3740°W)
Time: 13:01:34
(UTC+00:00)

Envisat - Pass Details

Date: 09 December 2021
Orbit: 764 x 766 km, 98.2° (Epoch: 28 January)

Event Time Altitude Azimuth Distance (km) Brightness Sun altitude
Rises 00:21:59 0° 194° (SSW) 3,222 6.8 -9.0°
Reaches altitude 10° 00:24:32 10° 204° (SSW) 2,300 6.3 -9.4°
Maximum altitude 00:29:00 31° 266° (W) 1,334 5.1 -10.0°
Drops below altitude 10° 00:33:30 10° 328° (NNW) 2,316 5.6 -10.6°
Sets 00:36:05 0° 339° (NNW) 3,248 6.2 -11.0°
